Location: Dittelspoint
(48.7198°N, 10.7214°E)
Time: 03:41:36
(UTC+00:00)

SL-08 RB Rocket - Pass Details

Date: 09 April 2020
Orbit: 646 x 685 km, 97.8° (Epoch: 06 June)

Event Time Altitude Azimuth Distance (km) Brightness Sun altitude
Exits shadow 18:56:15 - 161° (SSE) 2,864 6.6 -9.6°
Reaches altitude 10° 18:58:09 10° 161° (SSE) 2,085 5.9 -9.8°
Maximum altitude 19:02:43 80° 74° (ENE) 688 3.7 -10.5°
Drops below altitude 10° 19:07:22 10° 349° (NNW) 2,126 6.8 -11.2°
Sets 19:09:38 0° 348° (NNW) 3,050 7.7 -11.6°
